[[{"header":{"parameterUnit":"m.s-1","parameterCategory":2,"la1":30.2991,"la2":30.254,"lo1":-89.0895,"lo2":-89.0444,"dy":0.0017,"dx":0.0017,"nx":28,"ny":28,"refTime":"2025-07-09T03:00:00:Z","depth":"0","parameterNumber":2,"parameterNumberName":"U-component_of_CURRENTS"},"data":[0,0,0,0,0,0,0,0,0,0,0,0,0,0,0,0,0,0,0,0,0,0,0,0,0,0,0,0,0,0,0,0,0,0,0,0,0,0,0,0,0,0,0,0,0,0,0,0,0,0,0,0,0,0,0,0,0,0,0.1731,0.1731,0,0.1735,0.1735,0.1735,0.1728,0.1728,0.1728,0.1728,0.1754,0.1755,0.1756,0,0,0,0,0,0,0,0,0,0,0,0,0,0.1737,0.1737,0.1731,0.1731,0.1731,0.1735,0.1735,0.1735,0.1728,0.1728,0.1728,0.1728,0.1754,0.1755,0.1756,0,0,0,0,0,0,0,0,0,0,0,0,0,0.1736,0.1737,0.1731,0.1729,0.1729,0.1735,0.1735,0.1735,0.1728,0.1728,0.1728,0.1728,0.1754,0.1755,0.1756,0.1768,0,0,0.176,0.176,0,0,0,0,0,0,0,0,0.1736,0.1736,0.1729,0.1729,0.1729,0.1731,0.1747,0.1747,0.1728,0.1728,0.1728,0.1727,0.1749,0.1751,0.1751,0.1769,0.177,0.176,0.1761,0.1761,0.1762,0,0,0,0,0,0,0,0.1736,0.1736,0.1731,0.1729,0.1729,0.1735,0.1734,0.1747,0.1739,0.1728,0.1727,0.1729,0.1749,0.1749,0.1751,0.1771,0.176,0.1761,0.1762,0.1762,0.1823,0.1824,0,0,0,0,0,0,0.1737,0.1736,0.1731,0.1732,0.1733,0.1735,0.1734,0.173,0.1739,0.174,0.1729,0.1729,0.1747,0.175,0.1752,0.1783,0.1761,0.1762,0.1763,0.1822,0.1823,0.1824,0,0,0,0,0,0,0.1737,0.1736,0.1731,0.1735,0.1735,0.1735,0.1731,0.173,0.173,0.174,0.1741,0.1729,0.1747,0.175,0.1766,0.1783,0.1763,0.1764,0.1821,0.1822,0.1824,0.1835,0,0,0,0,0,0,0.1737,0.1736,0.1734,0.1735,0.1734,0.1737,0.1731,0.1731,0.1732,0.1731,0.1741,0.1743,0.1747,0.1764,0.1767,0.1785,0.1765,0.182,0.1822,0.1823,0.1833,0.1836,0.1839,0,0,0,0,0,0.1737,0.1734,0.1733,0.1733,0.1731,0.1737,0.1737,0.1736,0.1732,0.1734,0.1741,0.1742,0.1777,0.1765,0.1769,0.1787,0.1819,0.1821,0.1823,0.1832,0.1835,0.1839,0,0,0,0,0,0,0.1735,0.1734,0.1733,0.1729,0.1734,0.1736,0.1738,0.1737,0.1743,0.1743,0.1749,0.1752,0.1775,0.1779,0.1767,0.1811,0.18,0.1803,0.1806,0.1809,0.1812,0.1819,0.1766,0,0,0,0,0,0.1735,0.1731,0.1734,0.1732,0.1735,0.1737,0.1739,0.1739,0.1744,0.1746,0.1753,0.1766,0.1787,0.1794,0.1811,0.183,0.1835,0.1846,0.1849,0.1851,0.186,0.1892,0.1898,0.183,0.183,0.183,0,0,0.1732,0.1732,0.173,0.1732,0.1735,0.174,0.1737,0.1742,0.1749,0.175,0.1761,0.1776,0.1794,0.1819,0.183,0.1823,0.1868,0.1854,0.1855,0.1863,0.1894,0.1901,0.1907,0.1832,0.1831,0.1831,0,0,0.1728,0.1728,0.1725,0.1731,0.1738,0.1743,0.1745,0.175,0.1755,0.1769,0.1778,0.1803,0.1821,0.1844,0.1857,0.1886,0.1883,0.189,0.1907,0.1937,0.1943,0.1948,0.1939,0.1944,0.1889,0.1889,0.1889,0,0.1727,0.1721,0.1726,0.1729,0.1734,0.1745,0.1747,0.1759,0.1768,0.178,0.1775,0.1824,0.1838,0.1881,0.1892,0.1894,0.1895,0.189,0.1941,0.1946,0.1951,0.1941,0.1946,0.189,0.189,0.189,0.189,0,0.172,0.1719,0.172,0.1726,0.1736,0.1741,0.1758,0.1772,0.1781,0.1795,0.1834,0.1857,0.1887,0.1899,0.1904,0.1952,0.1933,0.194,0.193,0.1959,0.1946,0.195,0.1891,0.1891,0.189,0.189,0,0,0.1706,0.1713,0.1713,0.1715,0.1734,0.1739,0.1764,0.179,0.1812,0.1832,0.1864,0.1907,0.1921,0.1939,0.1953,0.1982,0.2012,0.1976,0.1977,0.1962,0.205,0.1947,0.1942,0.2026,0.2028,0.2029,0.2016,0,0.1699,0.1696,0.1706,0.1712,0.1714,0.174,0.1764,0.1793,0.1823,0.1859,0.1899,0.1934,0.1935,0.1954,0.1985,0.2016,0.2029,0.2013,0.2029,0.2029,0.1931,0.1946,0.1879,0.1855,0.2021,0.2022,0.2022,0,0.1685,0.1686,0.1685,0.1705,0.171,0.1721,0.1765,0.1789,0.1851,0.1877,0.1924,0.1952,0.2004,0.2,0.2055,0.2043,0.2046,0.206,0.206,0.1968,0.1936,0.186,0.1858,0.1822,0.2029,0.2029,0.2028,0,0.1662,0.1672,0.1668,0.1674,0.1701,0.1714,0.1737,0.1793,0.1822,0.1892,0.1919,0.1982,0.2009,0.2046,0.2063,0.2066,0.2108,0.2116,0.202,0.2011,0.1959,0.1943,0.1924,0.2148,0.2148,0.2148,0.2148,0,0.1646,0.1643,0.1656,0.1654,0.1665,0.1695,0.1725,0.1763,0.1826,0.1864,0.1923,0.196,0.2025,0.2051,0.207,0.2045,0.2109,0.2022,0.2008,0.1956,0.194,0.1911,0.188,0.2147,0.2147,0.2147,0.2148,0,0.1617,0.1624,0.1621,0.1642,0.165,0.1658,0.1704,0.1732,0.1794,0.1846,0.1866,0.1947,0.1977,0.2009,0.206,0.2031,0.1963,0.2006,0.1913,0.1888,0.1747,0.1718,0.1567,0.1542,0.1901,0.1899,0.1897,0,0.1601,0.1594,0.1602,0.1601,0.1608,0.1627,0.1646,0.1708,0.1743,0.1832,0.1856,0.1901,0.1926,0.1937,0.1912,0.1892,0.1863,0.1793,0.179,0.1722,0.1683,0.1596,0.1582,0.1723,0.1719,0.1717,0.1714,0,0.1573,0.1573,0.1572,0.1565,0.1573,0.1586,0.1618,0.1638,0.1715,0.1752,0.1806,0.1833,0.1838,0.1794,0.1744,0.1729,0.1686,0.1731,0.1714,0.1574,0.1429,0.1403,0.1725,0.169,0.1692,0.1694,0.1695,0.1696,0.1556,0.1542,0.1536,0.1526,0.1531,0.1536,0.1532,0.1573,0.1603,0.1645,0.1715,0.1717,0.1711,0.1638,0.16,0.1482,0.1484,0.1442,0.1421,0.1346,0.1287,0.1516,0.1431,0.1431,0.1432,0.1433,0.1434,0,0.1529,0.1511,0.1499,0.1479,0.1461,0.1485,0.1504,0.1491,0.1492,0.1544,0.1566,0.1539,0.147,0.1443,0.133,0.1226,0.1179,0.1167,0.1084,0.11,0.1366,0.1328,0.1151,0.1151,0.1152,0.1152,0.1152,0.1152,0.1515,0.1483,0.1466,0.1413,0.14,0.1363,0.136,0.1347,0.1364,0.1341,0.1323,0.1342,0.1328,0.1192,0.1072,0.1034,0.0972,0.0831,0.0868,0.1115,0.1142,0.1167,0.1128,0.0912,0.0912,0.059,0.0587,0.0585]},{"header":{"parameterUnit":"m.s-1","parameterCategory":2,"la1":30.2991,"la2":30.254,"lo1":-89.0895,"lo2":-89.0444,"dy":0.0017,"dx":0.0017,"nx":28,"ny":28,"refTime":"2025-07-09T03:00:00:Z","depth":"0","parameterNumber":3,"parameterNumberName":"V-component_of_CURRENTS"},"data":[0,0,0,0,0,0,0,0,0,0,0,0,0,0,0,0,0,0,0,0,0,0,0,0,0,0,0,0,0,0,0,0,0,0,0,0,0,0,0,0,0,0,0,0,0,0,0,0,0,0,0,0,0,0,0,0,0,0,0.0351,0.0352,0,0.0365,0.0365,0.0365,0.0361,0.0361,0.0361,0.0361,0.0356,0.0356,0.0356,0,0,0,0,0,0,0,0,0,0,0,0,0,0.0312,0.0313,0.0351,0.0352,0.0352,0.0365,0.0365,0.0365,0.0362,0.0361,0.0361,0.0361,0.0356,0.0356,0.0356,0,0,0,0,0,0,0,0,0,0,0,0,0,0.0328,0.0313,0.0351,0.0352,0.0352,0.0365,0.0365,0.0365,0.0362,0.0361,0.0361,0.0361,0.0356,0.0356,0.0356,0.0363,0,0,0.0356,0.0356,0,0,0,0,0,0,0,0,0.0327,0.0329,0.0352,0.0352,0.0352,0.0362,0.035,0.0364,0.0362,0.0357,0.0361,0.036,0.0357,0.0357,0.0359,0.0363,0.0363,0.0356,0.0356,0.0356,0.0356,0,0,0,0,0,0,0,0.0326,0.0328,0.0356,0.0352,0.0352,0.0348,0.035,0.0352,0.0358,0.0358,0.0358,0.036,0.0357,0.0359,0.0359,0.0363,0.0356,0.0356,0.0356,0.0356,0.0371,0.0371,0,0,0,0,0,0,0.0326,0.0327,0.0356,0.0357,0.0339,0.0349,0.0351,0.0359,0.0358,0.0358,0.0361,0.036,0.0359,0.0359,0.0359,0.0378,0.0356,0.0356,0.0356,0.0371,0.0371,0.0371,0,0,0,0,0,0,0.0325,0.0329,0.0355,0.0342,0.0346,0.0351,0.0359,0.0359,0.0362,0.0361,0.036,0.0363,0.0359,0.0359,0.0367,0.0377,0.0356,0.0357,0.037,0.0371,0.0371,0.0409,0,0,0,0,0,0,0.0324,0.0329,0.0333,0.0343,0.0346,0.0366,0.0359,0.036,0.0364,0.0364,0.0363,0.0362,0.0359,0.0367,0.0367,0.0377,0.0357,0.037,0.0371,0.0371,0.0407,0.0411,0.0413,0,0,0,0,0,0.0323,0.0333,0.0334,0.0337,0.0353,0.0366,0.0368,0.0369,0.0365,0.037,0.0371,0.0362,0.037,0.0368,0.0368,0.0378,0.037,0.037,0.0371,0.0406,0.041,0.0413,0,0,0,0,0,0,0.0317,0.0334,0.0335,0.0348,0.0357,0.0366,0.0371,0.0371,0.0376,0.0375,0.037,0.037,0.038,0.0373,0.0369,0.0382,0.0367,0.0368,0.0393,0.0397,0.04,0.041,0.0357,0,0,0,0,0,0.0319,0.0331,0.0343,0.0354,0.0359,0.0365,0.0369,0.0372,0.0378,0.0379,0.038,0.0379,0.0384,0.0385,0.0387,0.0396,0.0389,0.04,0.0404,0.0406,0.0413,0.0415,0.0419,0.0374,0.0374,0.0374,0,0,0.0319,0.033,0.0337,0.0354,0.036,0.0376,0.0367,0.0378,0.0392,0.0378,0.0396,0.0392,0.0389,0.0401,0.0404,0.0396,0.0413,0.0407,0.041,0.0415,0.0416,0.0421,0.0425,0.0374,0.0374,0.0374,0,0,0.033,0.0337,0.0352,0.0363,0.0377,0.0383,0.0387,0.0398,0.0403,0.0418,0.0412,0.0417,0.0422,0.0425,0.0427,0.0447,0.0431,0.0441,0.0467,0.0468,0.0472,0.0475,0.0466,0.0468,0.0443,0.0443,0.0443,0,0.0328,0.0352,0.0357,0.0376,0.0389,0.0388,0.0409,0.0416,0.0428,0.0439,0.0428,0.0443,0.0436,0.0457,0.0462,0.0456,0.0448,0.0454,0.0473,0.0476,0.0479,0.0469,0.0471,0.0445,0.0444,0.0444,0.0444,0,0.0353,0.0372,0.0382,0.0408,0.0421,0.0439,0.0452,0.0463,0.0467,0.0476,0.0494,0.0487,0.0497,0.0492,0.0484,0.0502,0.0487,0.0478,0.0466,0.0486,0.0473,0.0475,0.0447,0.0447,0.0446,0.0446,0,0,0.0353,0.0392,0.0396,0.0418,0.0442,0.0458,0.0482,0.0509,0.0533,0.0533,0.056,0.0561,0.0554,0.0554,0.0542,0.054,0.0548,0.0518,0.0517,0.0513,0.0543,0.0535,0.0536,0.0541,0.0542,0.0543,0.0525,0,0.0373,0.0415,0.043,0.0472,0.0496,0.0508,0.0535,0.0557,0.0572,0.0596,0.0588,0.0606,0.0579,0.0583,0.0578,0.0558,0.0554,0.0553,0.0521,0.052,0.0514,0.0538,0.0575,0.0563,0.0526,0.0526,0.0526,0,0.0395,0.0423,0.0467,0.0515,0.0526,0.0549,0.0597,0.0621,0.065,0.0662,0.0673,0.0666,0.0666,0.0636,0.0614,0.0614,0.0584,0.0562,0.0561,0.0543,0.0515,0.0537,0.0567,0.06,0.0528,0.0528,0.0528,0,0.0402,0.0451,0.0489,0.0505,0.0554,0.0577,0.0603,0.0642,0.0676,0.0704,0.0725,0.0721,0.0722,0.0688,0.0638,0.0629,0.0607,0.0588,0.0552,0.055,0.0571,0.057,0.0635,0.0575,0.0575,0.0575,0.0575,0,0.0422,0.0452,0.0495,0.0517,0.0568,0.0595,0.0652,0.0677,0.0722,0.0774,0.0758,0.0788,0.0736,0.0714,0.066,0.0613,0.0624,0.0565,0.0552,0.0584,0.0584,0.0605,0.0604,0.0575,0.0575,0.0575,0.0575,0,0.0425,0.0453,0.05,0.0554,0.0574,0.061,0.0682,0.0727,0.0759,0.0824,0.0833,0.0841,0.0819,0.0755,0.0702,0.0648,0.0619,0.0575,0.0609,0.0601,0.0597,0.0596,0.0605,0.0666,0.0538,0.0538,0.0538,0,0.0432,0.0456,0.0521,0.0555,0.0581,0.0639,0.0687,0.0741,0.0798,0.0864,0.09,0.0892,0.0907,0.0815,0.0723,0.0632,0.0633,0.0594,0.0586,0.0615,0.0604,0.0591,0.0642,0.0623,0.0624,0.0624,0.0625,0,0.0444,0.0465,0.0506,0.0573,0.0627,0.0695,0.0768,0.082,0.0895,0.0953,0.1022,0.1034,0.0953,0.0897,0.0763,0.0689,0.0647,0.06,0.0633,0.0683,0.0672,0.0718,0.0606,0.0629,0.0628,0.0628,0.0628,0.0628,0.0451,0.048,0.0533,0.0598,0.0663,0.0749,0.0816,0.0904,0.1003,0.1114,0.1114,0.1166,0.1078,0.091,0.0811,0.0695,0.0682,0.0669,0.0665,0.0649,0.0718,0.0607,0.0612,0.0611,0.0611,0.0611,0.061,0,0.046,0.0498,0.0557,0.0641,0.0713,0.0748,0.0872,0.0955,0.1082,0.1195,0.1264,0.1293,0.1174,0.1039,0.0865,0.0794,0.0781,0.0756,0.0773,0.0825,0.0735,0.0752,0.0785,0.0785,0.0785,0.0785,0.0785,0.0785,0.0468,0.0519,0.0551,0.0666,0.0729,0.0839,0.0916,0.1047,0.1163,0.1341,0.1429,0.1487,0.1442,0.1076,0.0924,0.0879,0.0916,0.0844,0.0883,0.0836,0.0829,0.0822,0.0841,0.0891,0.0892,0.1015,0.1015,0.1016]}],[{"header":{"parameterUnit":"m.s-1","parameterCategory":2,"la1":30.2991,"la2":30.254,"lo1":-89.0895,"lo2":-89.0444,"dy":0.0017,"dx":0.0017,"nx":28,"ny":28,"refTime":"2025-07-09T03:00:00:Z","depth":"2","parameterNumber":2,"parameterNumberName":"U-component_of_CURRENTS"},"data":[0,0,0,0,0,0,0,0,0,0,0,0,0,0,0,0,0,0,0,0,0,0,0,0,0,0,0,0,0,0,0,0,0,0,0,0,0,0,0,0,0,0,0,0,0,0,0,0,0,0,0,0,0,0,0,0,0,0,0.1525,0.1525,0,0.1527,0.1527,0.1527,0.1526,0.1526,0.1526,0.1526,0.1555,0.1555,0.1556,0,0,0,0,0,0,0,0,0,0,0,0,0,0.1536,0.1536,0.1525,0.1525,0.1525,0.1527,0.1527,0.1527,0.1526,0.1526,0.1526,0.1526,0.1554,0.1555,0.1556,0,0,0,0,0,0,0,0,0,0,0,0,0,0.1533,0.1536,0.1525,0.1526,0.1526,0.1527,0.1527,0.1527,0.1526,0.1526,0.1526,0.1526,0.1554,0.1555,0.1556,0.1561,0,0,0.1559,0.156,0,0,0,0,0,0,0,0,0.1533,0.1532,0.1526,0.1526,0.1526,0.1527,0.1541,0.154,0.1526,0.1525,0.1526,0.1526,0.1549,0.155,0.1548,0.1562,0.1563,0.1559,0.156,0.1561,0.1561,0,0,0,0,0,0,0,0.1533,0.1533,0.1525,0.1526,0.1526,0.1531,0.1531,0.1541,0.1536,0.1525,0.1525,0.1527,0.1549,0.1547,0.1549,0.1564,0.1559,0.156,0.1561,0.1561,0.1619,0.162,0,0,0,0,0,0,0.1534,0.1533,0.1525,0.1525,0.1531,0.1531,0.153,0.1526,0.1535,0.1537,0.1527,0.1527,0.1545,0.1548,0.155,0.1584,0.1561,0.1562,0.1562,0.1618,0.1619,0.162,0,0,0,0,0,0,0.1534,0.1533,0.1525,0.153,0.1529,0.1531,0.1526,0.1526,0.153,0.1537,0.1539,0.1532,0.1546,0.1549,0.1564,0.1584,0.1562,0.1563,0.1617,0.1619,0.162,0.1634,0,0,0,0,0,0,0.1535,0.1533,0.1533,0.153,0.1529,0.153,0.1526,0.1526,0.1531,0.1531,0.1541,0.1543,0.1546,0.1563,0.1565,0.1585,0.1564,0.1616,0.1618,0.1619,0.1632,0.1636,0.1638,0,0,0,0,0,0.1535,0.1533,0.1533,0.1532,0.1528,0.153,0.1531,0.1531,0.1531,0.1535,0.1541,0.1543,0.1576,0.1564,0.1567,0.1587,0.1615,0.1617,0.1619,0.1631,0.1635,0.1638,0,0,0,0,0,0,0.1539,0.1533,0.1532,0.1529,0.1533,0.1531,0.1535,0.1535,0.1542,0.1545,0.1549,0.1552,0.1575,0.1579,0.1566,0.161,0.1599,0.1601,0.1607,0.161,0.1613,0.1618,0.1565,0,0,0,0,0,0.1539,0.1536,0.1535,0.1534,0.1536,0.1537,0.1539,0.154,0.1545,0.1547,0.1554,0.1568,0.1585,0.1595,0.1608,0.1627,0.1631,0.1645,0.1648,0.1651,0.1658,0.1689,0.1695,0.1627,0.1627,0.1627,0,0,0.1539,0.1537,0.1535,0.1535,0.1537,0.154,0.1538,0.1544,0.1551,0.1551,0.1564,0.1578,0.1593,0.1616,0.1628,0.1622,0.1668,0.1653,0.1655,0.1661,0.1692,0.1698,0.1704,0.1628,0.1628,0.1628,0,0,0.1538,0.1538,0.1535,0.1539,0.1545,0.1548,0.1551,0.1555,0.1561,0.1576,0.1582,0.1607,0.1625,0.1643,0.1655,0.1684,0.1683,0.169,0.171,0.174,0.1745,0.1751,0.1742,0.1746,0.1692,0.1692,0.1692,0,0.1541,0.1533,0.1536,0.1538,0.1542,0.1552,0.1554,0.1564,0.1573,0.1585,0.1584,0.1629,0.1641,0.1678,0.169,0.1692,0.1695,0.1692,0.1743,0.1749,0.1754,0.1744,0.1748,0.1693,0.1693,0.1693,0.1693,0,0.1535,0.1534,0.1535,0.1538,0.1546,0.1551,0.1565,0.1579,0.1591,0.1604,0.1642,0.1661,0.1689,0.1701,0.1705,0.1751,0.1735,0.1742,0.1732,0.1761,0.1749,0.1753,0.1694,0.1694,0.1694,0.1693,0,0,0.1528,0.1529,0.153,0.153,0.1546,0.155,0.1573,0.1595,0.1616,0.1638,0.1669,0.1707,0.1723,0.1738,0.1751,0.178,0.1812,0.1778,0.178,0.1765,0.1852,0.1757,0.1752,0.183,0.1831,0.1833,0.182,0,0.1523,0.1518,0.1525,0.1529,0.1529,0.1552,0.1572,0.1598,0.1628,0.1663,0.1699,0.1733,0.1736,0.1756,0.1787,0.1815,0.1829,0.1813,0.1831,0.183,0.1739,0.1757,0.1623,0.1594,0.1825,0.1826,0.1826,0,0.1512,0.1511,0.1508,0.1522,0.1526,0.1536,0.1576,0.1597,0.1655,0.1681,0.1727,0.1753,0.1803,0.1802,0.1854,0.1844,0.1849,0.1862,0.1862,0.1774,0.1744,0.1608,0.1594,0.1834,0.1833,0.1833,0.1832,0,0.1494,0.1499,0.1496,0.1499,0.152,0.1532,0.1553,0.1604,0.163,0.1698,0.1725,0.1784,0.1813,0.1849,0.1865,0.1869,0.1909,0.1916,0.1827,0.1819,0.1708,0.1688,0.1947,0.1948,0.1948,0.1948,0.1948,0,0.148,0.1478,0.1487,0.1485,0.1494,0.152,0.1548,0.1583,0.1642,0.1676,0.1733,0.1766,0.183,0.1855,0.1873,0.1851,0.1911,0.1829,0.1817,0.1705,0.1686,0.1903,0.1898,0.1947,0.1947,0.1947,0.1947,0,0.1458,0.1463,0.1458,0.1476,0.1483,0.1492,0.1532,0.1557,0.1617,0.1665,0.1685,0.1759,0.1788,0.1818,0.1867,0.184,0.1844,0.1816,0.1657,0.1626,0.173,0.1726,0.1724,0.1721,0.1718,0.1716,0.1714,0,0.1445,0.1438,0.1444,0.1443,0.145,0.1468,0.1484,0.154,0.1569,0.1652,0.1672,0.1717,0.1735,0.1746,0.1717,0.1698,0.1768,0.1544,0.1531,0.1722,0.1711,0.1711,0.1711,0.1384,0.1379,0.1376,0.1373,0,0.1421,0.1422,0.142,0.1413,0.142,0.1427,0.1455,0.1471,0.154,0.1573,0.1617,0.1639,0.1639,0.1558,0.1513,0.149,0.1539,0.1465,0.1726,0.1455,0.1399,0.1388,0.14,0.134,0.1343,0.1346,0.1347,0.1349,0.1407,0.1394,0.1388,0.1379,0.1381,0.1378,0.137,0.1402,0.1424,0.1452,0.1517,0.149,0.1481,0.1348,0.1281,0.1212,0.1332,0.127,0.1284,0.13,0.1256,0.1198,0.1092,0.1093,0.1095,0.1096,0.1097,0,0.1382,0.1366,0.1354,0.1331,0.131,0.1334,0.134,0.1316,0.1308,0.1338,0.135,0.1207,0.1128,0.1114,0.0958,0.0923,0.0935,0.0877,0.0898,0.093,0.0959,0.09,0.064,0.0639,0.0637,0.0636,0,0,0.1369,0.1338,0.132,0.1264,0.1251,0.1208,0.12,0.1168,0.1162,0.1114,0.1076,0.1131,0.1117,0.0897,0.0835,0.0719,0.083,0.068,0.1049,0.1112,0.114,0.1185,0.113,0,0,0,0,0]},{"header":{"parameterUnit":"m.s-1","parameterCategory":2,"la1":30.2991,"la2":30.254,"lo1":-89.0895,"lo2":-89.0444,"dy":0.0017,"dx":0.0017,"nx":28,"ny":28,"refTime":"2025-07-09T03:00:00:Z","depth":"2","parameterNumber":3,"parameterNumberName":"V-component_of_CURRENTS"},"data":[0,0,0,0,0,0,0,0,0,0,0,0,0,0,0,0,0,0,0,0,0,0,0,0,0,0,0,0,0,0,0,0,0,0,0,0,0,0,0,0,0,0,0,0,0,0,0,0,0,0,0,0,0,0,0,0,0,0,0.0249,0.0249,0,0.0259,0.0259,0.0259,0.0257,0.0257,0.0257,0.0257,0.025,0.025,0.025,0,0,0,0,0,0,0,0,0,0,0,0,0,0.0217,0.0218,0.0249,0.0249,0.0249,0.0259,0.0259,0.0259,0.0257,0.0257,0.0257,0.0257,0.025,0.025,0.025,0,0,0,0,0,0,0,0,0,0,0,0,0,0.0229,0.0218,0.0249,0.025,0.025,0.0259,0.0259,0.026,0.0257,0.0257,0.0257,0.0257,0.025,0.025,0.025,0.0254,0,0,0.025,0.025,0,0,0,0,0,0,0,0,0.0228,0.023,0.025,0.025,0.025,0.0257,0.0246,0.0257,0.0257,0.0254,0.0257,0.0257,0.0252,0.0251,0.0253,0.0254,0.0253,0.025,0.025,0.025,0.025,0,0,0,0,0,0,0,0.0227,0.023,0.0253,0.025,0.025,0.0246,0.0248,0.0248,0.0253,0.0254,0.0254,0.0257,0.0252,0.0253,0.0253,0.0253,0.025,0.025,0.025,0.025,0.0262,0.0262,0,0,0,0,0,0,0.0228,0.0229,0.0252,0.0253,0.0239,0.0247,0.0249,0.0255,0.0253,0.0253,0.0257,0.0256,0.0254,0.0253,0.0253,0.0272,0.025,0.025,0.025,0.0261,0.0262,0.0262,0,0,0,0,0,0,0.0228,0.023,0.0252,0.0241,0.0244,0.0248,0.0255,0.0255,0.0259,0.0256,0.0255,0.026,0.0253,0.0253,0.026,0.0271,0.025,0.025,0.0261,0.0261,0.0262,0.03,0,0,0,0,0,0,0.0227,0.023,0.0235,0.0241,0.0244,0.0261,0.0255,0.0255,0.0261,0.0261,0.0259,0.0258,0.0253,0.026,0.026,0.027,0.025,0.026,0.0261,0.0262,0.0299,0.0302,0.0305,0,0,0,0,0,0.0226,0.0235,0.0235,0.0238,0.0251,0.0261,0.0263,0.0264,0.0261,0.0266,0.0267,0.0258,0.0264,0.0261,0.026,0.0271,0.026,0.0261,0.0262,0.0297,0.0302,0.0305,0,0,0,0,0,0,0.0222,0.0235,0.0236,0.0248,0.0255,0.0261,0.0267,0.0267,0.0271,0.0272,0.0266,0.0265,0.0275,0.0267,0.0263,0.0275,0.0259,0.026,0.0286,0.029,0.0294,0.0302,0.025,0,0,0,0,0,0.0224,0.0235,0.0244,0.0254,0.0258,0.0263,0.0267,0.0269,0.0274,0.0276,0.0275,0.0274,0.0278,0.0279,0.0279,0.0288,0.028,0.0292,0.0296,0.0298,0.0305,0.0306,0.0311,0.0265,0.0265,0.0265,0,0,0.0225,0.0234,0.024,0.0254,0.026,0.0274,0.0265,0.0275,0.0289,0.0274,0.0291,0.0287,0.0282,0.0294,0.0296,0.0289,0.0306,0.0299,0.0302,0.0307,0.0308,0.0312,0.0316,0.0265,0.0265,0.0265,0,0,0.0236,0.0242,0.0256,0.0265,0.0277,0.0282,0.0286,0.0295,0.0301,0.0315,0.0309,0.0313,0.0316,0.0319,0.0319,0.0339,0.0323,0.0335,0.036,0.0362,0.0366,0.0369,0.0361,0.0363,0.0337,0.0337,0.0337,0,0.0236,0.0257,0.026,0.0277,0.029,0.0288,0.0307,0.0313,0.0324,0.0335,0.0325,0.0338,0.0331,0.0349,0.0355,0.0348,0.0342,0.0347,0.0367,0.037,0.0373,0.0363,0.0366,0.0339,0.0338,0.0338,0.0338,0,0.0259,0.0277,0.0286,0.0309,0.0321,0.0337,0.0348,0.0359,0.0364,0.0372,0.039,0.0382,0.039,0.0386,0.0377,0.0395,0.0381,0.0372,0.0359,0.038,0.0368,0.037,0.0341,0.0341,0.034,0.034,0,0,0.0262,0.0296,0.03,0.032,0.0342,0.0356,0.0379,0.0404,0.0427,0.0427,0.0454,0.0453,0.0447,0.0447,0.0434,0.0433,0.0442,0.0412,0.0411,0.0407,0.044,0.043,0.0431,0.0437,0.0437,0.0438,0.0421,0,0.0281,0.032,0.0332,0.0372,0.0394,0.0404,0.0429,0.045,0.0465,0.0488,0.048,0.0498,0.0471,0.0476,0.0472,0.0452,0.0448,0.0447,0.0417,0.0416,0.0408,0.0433,0.0425,0.041,0.0423,0.0423,0.0423,0,0.0303,0.0328,0.0369,0.0413,0.0424,0.0446,0.0491,0.0514,0.0542,0.0553,0.0564,0.0557,0.0557,0.0528,0.0507,0.0507,0.0479,0.0457,0.0456,0.0437,0.041,0.0391,0.0412,0.0425,0.0425,0.0425,0.0425,0,0.0312,0.0356,0.0392,0.0407,0.0452,0.0474,0.0499,0.0536,0.0568,0.0596,0.0617,0.0612,0.0614,0.0581,0.0532,0.0523,0.0502,0.0484,0.0448,0.0446,0.0428,0.0424,0.0472,0.0472,0.0472,0.0472,0.0472,0,0.0332,0.036,0.04,0.0421,0.047,0.0494,0.055,0.0574,0.0616,0.0667,0.065,0.0678,0.0628,0.0607,0.0554,0.0508,0.0519,0.046,0.0448,0.044,0.0438,0.0442,0.0438,0.0471,0.0472,0.0472,0.0472,0,0.0337,0.0362,0.0407,0.0457,0.0477,0.0513,0.0581,0.0625,0.0656,0.0718,0.0728,0.0733,0.071,0.0648,0.0597,0.0543,0.0493,0.0471,0.046,0.0447,0.0428,0.0427,0.0436,0.0435,0.0435,0.0435,0.0435,0,0.0345,0.0368,0.043,0.0463,0.0488,0.0544,0.059,0.0641,0.0696,0.0757,0.079,0.0782,0.0791,0.07,0.0608,0.0518,0.0499,0.0443,0.0428,0.0441,0.0428,0.0427,0.0426,0.0413,0.0412,0.0412,0.0412,0,0.0358,0.0379,0.0417,0.0482,0.0535,0.06,0.067,0.0719,0.079,0.0843,0.0904,0.091,0.0826,0.074,0.0609,0.0537,0.0456,0.0435,0.046,0.0425,0.0419,0.0406,0.0406,0.0409,0.0409,0.041,0.041,0.041,0.0368,0.0395,0.0446,0.0509,0.0572,0.0653,0.0717,0.0798,0.0889,0.0981,0.098,0.0989,0.0872,0.071,0.0584,0.0445,0.0462,0.0401,0.0402,0.0403,0.0406,0.04,0.0386,0.0386,0.0386,0.0386,0.0386,0,0.0377,0.0414,0.0471,0.0551,0.062,0.0655,0.0771,0.0842,0.0957,0.1033,0.1085,0.0959,0.0854,0.071,0.0516,0.0404,0.0382,0.0347,0.0349,0.0352,0.0355,0.0355,0.0322,0.0322,0.0321,0.0321,0,0,0.0385,0.0433,0.0464,0.0574,0.0636,0.0741,0.0813,0.0922,0.1003,0.1083,0.1092,0.1083,0.0906,0.0747,0.0581,0.0462,0.0433,0.0425,0.0489,0.0516,0.052,0.0397,0.0403,0,0,0,0,0]}],[{"header":{"parameterUnit":"m.s-1","parameterCategory":2,"la1":30.2991,"la2":30.254,"lo1":-89.0895,"lo2":-89.0444,"dy":0.0017,"dx":0.0017,"nx":28,"ny":28,"refTime":"2025-07-09T03:00:00:Z","depth":"4","parameterNumber":2,"parameterNumberName":"U-component_of_CURRENTS"},"data":[0,0,0,0,0,0,0,0,0,0,0,0,0,0,0,0,0,0,0,0,0,0,0,0,0,0,0,0,0,0,0,0,0,0,0,0,0,0,0,0,0,0,0,0,0,0,0,0,0,0,0,0,0,0,0,0,0,0,0.0906,0.0906,0,0.0908,0.0908,0.0908,0.0928,0.0928,0.0929,0.0929,0.094,0.0939,0.0939,0,0,0,0,0,0,0,0,0,0,0,0,0,0.092,0.0919,0.0906,0.0906,0.0906,0.0908,0.0908,0.0908,0.0927,0.0928,0.0929,0.093,0.094,0.0939,0.0939,0,0,0,0,0,0,0,0,0,0,0,0,0,0.0916,0.0919,0.0906,0.0917,0.0918,0.0908,0.0908,0.0908,0.0927,0.0928,0.0929,0.093,0.094,0.0939,0.0939,0.0919,0,0,0.0938,0.0938,0,0,0,0,0,0,0,0,0.0916,0.0915,0.0915,0.0916,0.0917,0.0919,0.0917,0.0913,0.0927,0.0923,0.0929,0.093,0.0934,0.0934,0.0931,0.092,0.092,0.0938,0.0938,0.0937,0.0937,0,0,0,0,0,0,0,0.0916,0.0915,0.0906,0.0915,0.0917,0.0922,0.0923,0.0916,0.0923,0.0923,0.0925,0.0926,0.0934,0.0931,0.0931,0.092,0.0938,0.0937,0.0937,0.0937,0.096,0.0961,0,0,0,0,0,0,0.0917,0.0915,0.0906,0.0906,0.092,0.0921,0.0922,0.0917,0.0923,0.0924,0.0926,0.0927,0.0931,0.0932,0.0932,0.0968,0.0937,0.0937,0.0937,0.0959,0.096,0.0961,0,0,0,0,0,0,0.0917,0.0916,0.0906,0.0912,0.0911,0.092,0.0915,0.0917,0.0936,0.0925,0.0927,0.0946,0.0932,0.0932,0.0951,0.0967,0.0937,0.0937,0.0958,0.0959,0.096,0.1004,0,0,0,0,0,0,0.0917,0.0916,0.0925,0.0912,0.0911,0.0914,0.0914,0.0916,0.0934,0.0937,0.0942,0.0942,0.0933,0.0951,0.095,0.0966,0.0936,0.0957,0.0959,0.096,0.1001,0.1006,0.101,0,0,0,0,0,0.0918,0.0922,0.0925,0.0925,0.0919,0.0915,0.0915,0.0924,0.0935,0.0944,0.0954,0.0943,0.0961,0.0952,0.095,0.0966,0.0956,0.0958,0.096,0.0999,0.1005,0.101,0,0,0,0,0,0,0.0936,0.0924,0.0927,0.093,0.093,0.0919,0.0932,0.0936,0.0949,0.0961,0.0953,0.0954,0.0978,0.0966,0.0956,0.0978,0.0957,0.0958,0.0987,0.0993,0.0997,0.1005,0.0936,0,0,0,0,0,0.0942,0.0944,0.0934,0.094,0.0942,0.0942,0.0947,0.0951,0.0955,0.0964,0.0968,0.0974,0.0979,0.0983,0.0985,0.0993,0.099,0.1002,0.1007,0.1011,0.1017,0.103,0.1036,0.0967,0.0967,0.0967,0,0,0.0953,0.0947,0.095,0.0945,0.0948,0.0948,0.0947,0.096,0.0968,0.0961,0.0986,0.0993,0.0987,0.1002,0.101,0.0996,0.103,0.1014,0.1017,0.1021,0.1032,0.1039,0.1045,0.0968,0.0968,0.0968,0,0,0.0963,0.0968,0.097,0.097,0.0976,0.0973,0.0982,0.0983,0.0996,0.1014,0.1016,0.1038,0.104,0.1041,0.104,0.1071,0.1058,0.1071,0.1097,0.1109,0.1115,0.112,0.1127,0.1132,0.1069,0.1069,0.1069,0,0.098,0.0973,0.0973,0.0973,0.0977,0.0986,0.0989,0.0998,0.101,0.1022,0.1031,0.1057,0.1058,0.1071,0.1088,0.1082,0.1085,0.1075,0.1116,0.1121,0.1125,0.1131,0.1136,0.1072,0.1071,0.1071,0.1071,0,0.0978,0.0984,0.0988,0.0988,0.0993,0.1001,0.1006,0.1026,0.1047,0.1055,0.1089,0.1098,0.1112,0.1118,0.1115,0.1145,0.1137,0.1124,0.1102,0.1135,0.1138,0.1143,0.1075,0.1074,0.1073,0.1073,0,0,0.0984,0.0986,0.099,0.0992,0.1003,0.1003,0.1026,0.104,0.1061,0.1089,0.1115,0.114,0.1157,0.1158,0.116,0.1176,0.1216,0.117,0.117,0.1177,0.1246,0.1136,0.113,0.1213,0.1214,0.1215,0.1237,0,0.0986,0.0986,0.0989,0.0998,0.0997,0.1015,0.103,0.1051,0.1079,0.1109,0.1133,0.1162,0.1166,0.1185,0.1204,0.1214,0.1231,0.1212,0.1213,0.1213,0.111,0.1132,0.1218,0.124,0.1241,0.1242,0.1242,0,0.0977,0.0978,0.0986,0.0996,0.1,0.1014,0.1045,0.1062,0.1104,0.113,0.1168,0.1186,0.1223,0.1222,0.1259,0.1248,0.1257,0.1262,0.1263,0.1147,0.111,0.1199,0.1251,0.125,0.1249,0.1249,0.1248,0,0.0964,0.0975,0.0983,0.0986,0.1002,0.1021,0.1039,0.1077,0.1096,0.1153,0.1175,0.1217,0.1243,0.1265,0.1281,0.1278,0.1312,0.1302,0.121,0.1203,0.1278,0.1272,0.1331,0.1331,0.1331,0.1331,0.1331,0,0.0948,0.0956,0.0983,0.0985,0.1002,0.1021,0.1051,0.1079,0.1123,0.1143,0.119,0.1209,0.1259,0.1278,0.1291,0.1257,0.1318,0.1217,0.12,0.1295,0.1291,0.1281,0.1275,0.1331,0.1331,0.1331,0.1331,0,0.0925,0.0943,0.0953,0.0982,0.0995,0.1012,0.1051,0.1066,0.1117,0.1148,0.1167,0.1216,0.1235,0.1261,0.1295,0.1251,0.1242,0.1217,0.1318,0.1306,0.1125,0.1121,0.1114,0.111,0.1107,0.1104,0.1102,0,0.0907,0.0912,0.095,0.0958,0.0976,0.1005,0.1017,0.1064,0.1077,0.1138,0.114,0.1182,0.1204,0.1159,0.1198,0.1191,0.1178,0.116,0.1143,0.1118,0.1103,0.1104,0.1104,0.1097,0.1096,0.1095,0.1094,0,0.0875,0.0903,0.0913,0.0931,0.095,0.0955,0.0981,0.0981,0.103,0.1087,0.1083,0.1081,0.1092,0.11,0.1093,0.1093,0.1162,0.1127,0.1134,0.1117,0.1098,0.1086,0.109,0.1083,0.1085,0.1086,0.1087,0,0.086,0.0861,0.0883,0.0888,0.0909,0.0892,0.0911,0.0911,0.0927,0.0991,0.0994,0.1035,0.109,0.1049,0.105,0.1027,0.1011,0.0971,0.0986,0.0998,0.0946,0.0903,0.0814,0,0,0,0,0,0.0835,0.0825,0.083,0.0822,0.0839,0.0848,0.0873,0.0891,0.0942,0.0913,0.0947,0.0952,0.0937,0.0961,0.0912,0.0991,0.1014,0.0927,0.0977,0.1022,0.1035,0.0981,0,0,0,0,0,0,0.0816,0.0825,0.0811,0.0765,0.0751,0.0751,0.0767,0.0801,0.0782,0.0846,0.0846,0.0889,0.0895,0.0962,0.0897,0.09,0.0907,0.0955,0.0951,0.1015,0.1027,0.1037,0.0986,0,0,0,0,0]},{"header":{"parameterUnit":"m.s-1","parameterCategory":2,"la1":30.2991,"la2":30.254,"lo1":-89.0895,"lo2":-89.0444,"dy":0.0017,"dx":0.0017,"nx":28,"ny":28,"refTime":"2025-07-09T03:00:00:Z","depth":"4","parameterNumber":3,"parameterNumberName":"V-component_of_CURRENTS"},"data":[0,0,0,0,0,0,0,0,0,0,0,0,0,0,0,0,0,0,0,0,0,0,0,0,0,0,0,0,0,0,0,0,0,0,0,0,0,0,0,0,0,0,0,0,0,0,0,0,0,0,0,0,0,0,0,0,0,0,0.0132,0.0132,0,0.0136,0.0136,0.0136,0.0136,0.0136,0.0136,0.0136,0.0124,0.0124,0.0124,0,0,0,0,0,0,0,0,0,0,0,0,0,0.0117,0.0117,0.0132,0.0132,0.0132,0.0136,0.0136,0.0136,0.0136,0.0136,0.0136,0.0136,0.0124,0.0124,0.0124,0,0,0,0,0,0,0,0,0,0,0,0,0,0.0122,0.0117,0.0132,0.0133,0.0133,0.0136,0.0136,0.0136,0.0136,0.0136,0.0136,0.0136,0.0125,0.0124,0.0124,0.0122,0,0,0.0122,0.0122,0,0,0,0,0,0,0,0,0.0122,0.0123,0.0133,0.0133,0.0133,0.0136,0.0127,0.0131,0.0137,0.0135,0.0136,0.0136,0.0127,0.0126,0.0127,0.0121,0.0121,0.0122,0.0122,0.0122,0.0122,0,0,0,0,0,0,0,0.0122,0.0123,0.0134,0.0133,0.0133,0.0131,0.0131,0.0127,0.0131,0.0135,0.0135,0.0136,0.0127,0.0128,0.0127,0.0121,0.0122,0.0122,0.0122,0.0121,0.0127,0.0127,0,0,0,0,0,0,0.0122,0.0122,0.0133,0.0134,0.0128,0.0131,0.0132,0.0135,0.0131,0.0131,0.0136,0.0136,0.0128,0.0127,0.0126,0.0142,0.0122,0.0121,0.0121,0.0127,0.0127,0.0128,0,0,0,0,0,0,0.0122,0.0123,0.0133,0.0128,0.0129,0.0131,0.0135,0.0135,0.014,0.0132,0.0131,0.0141,0.0128,0.0127,0.0132,0.0141,0.0121,0.0121,0.0126,0.0127,0.0127,0.0162,0,0,0,0,0,0,0.0121,0.0123,0.0127,0.0128,0.013,0.0139,0.0135,0.0135,0.014,0.014,0.0136,0.0134,0.0128,0.0133,0.0131,0.014,0.0121,0.0126,0.0126,0.0127,0.016,0.0163,0.0166,0,0,0,0,0,0.0121,0.0127,0.0127,0.0129,0.0135,0.0139,0.014,0.0141,0.014,0.0144,0.0145,0.0135,0.0136,0.0133,0.0131,0.014,0.0125,0.0126,0.0127,0.0158,0.0163,0.0166,0,0,0,0,0,0,0.0122,0.0127,0.0128,0.0135,0.0139,0.014,0.0144,0.0144,0.0148,0.0149,0.0141,0.014,0.0147,0.0139,0.0135,0.0143,0.0128,0.0129,0.0153,0.0156,0.016,0.0168,0.012,0,0,0,0,0,0.0124,0.0131,0.0134,0.014,0.0143,0.0144,0.0147,0.0148,0.0151,0.0152,0.015,0.0148,0.0149,0.015,0.0147,0.0152,0.0145,0.0156,0.0159,0.0162,0.0167,0.0167,0.0171,0.0131,0.0131,0.0131,0,0,0.0126,0.0131,0.0134,0.0141,0.0145,0.0154,0.0146,0.0153,0.0164,0.015,0.0164,0.0159,0.0153,0.0161,0.0163,0.0156,0.0169,0.0163,0.0165,0.017,0.0169,0.0173,0.0176,0.0131,0.0131,0.0131,0,0,0.0135,0.0139,0.0148,0.0153,0.016,0.0163,0.0166,0.0171,0.0176,0.0187,0.0181,0.0185,0.0184,0.0184,0.0184,0.0202,0.0186,0.0197,0.022,0.022,0.0224,0.0226,0.0221,0.0223,0.0199,0.0199,0.0199,0,0.0137,0.0151,0.0151,0.0162,0.0171,0.0168,0.0182,0.0187,0.0194,0.0204,0.0196,0.0205,0.0197,0.0211,0.0217,0.021,0.0204,0.0207,0.0225,0.0227,0.023,0.0224,0.0226,0.0201,0.02,0.02,0.02,0,0.0154,0.0166,0.0173,0.0188,0.0196,0.0208,0.0215,0.0225,0.023,0.0236,0.0251,0.0243,0.0249,0.0245,0.0237,0.0251,0.024,0.0229,0.0216,0.0236,0.0228,0.023,0.0203,0.0203,0.0202,0.0202,0,0,0.0157,0.018,0.0184,0.0199,0.0213,0.0224,0.0242,0.0261,0.0282,0.0282,0.0304,0.0303,0.0299,0.0297,0.0285,0.0284,0.0293,0.0265,0.0264,0.0262,0.029,0.0266,0.0265,0.0285,0.0285,0.0286,0.0277,0,0.0172,0.02,0.0208,0.0238,0.0254,0.0263,0.0283,0.03,0.0312,0.0332,0.0326,0.0341,0.0318,0.0323,0.0318,0.03,0.0298,0.0296,0.0269,0.0268,0.0246,0.0266,0.0287,0.0278,0.0278,0.0278,0.0279,0,0.0187,0.0205,0.0237,0.0271,0.028,0.0298,0.0335,0.0354,0.0377,0.0388,0.0397,0.039,0.0391,0.0367,0.0349,0.0348,0.0324,0.0306,0.0305,0.0273,0.0247,0.0254,0.0281,0.0281,0.0281,0.028,0.028,0,0.0194,0.0228,0.0256,0.0267,0.0302,0.0323,0.0345,0.0374,0.0402,0.0426,0.0442,0.0438,0.0441,0.0412,0.0371,0.0363,0.0345,0.0329,0.0285,0.0283,0.0291,0.0288,0.0319,0.0319,0.0319,0.0319,0.0319,0,0.0208,0.0231,0.0264,0.0281,0.0323,0.0341,0.039,0.0411,0.0447,0.0485,0.0473,0.0491,0.0454,0.0434,0.0389,0.0342,0.0359,0.0295,0.0282,0.0305,0.0304,0.0292,0.0289,0.0318,0.0318,0.0318,0.0319,0,0.021,0.0231,0.0268,0.031,0.0328,0.036,0.0421,0.0457,0.0484,0.053,0.0539,0.0539,0.0514,0.0465,0.0421,0.037,0.0323,0.0301,0.0331,0.0319,0.0256,0.0255,0.0256,0.0255,0.0254,0.0254,0.0253,0,0.0214,0.0233,0.0288,0.0316,0.0338,0.0389,0.0428,0.0474,0.0514,0.0558,0.058,0.0571,0.0558,0.0477,0.0421,0.0336,0.0316,0.0287,0.027,0.0264,0.0252,0.0252,0.0251,0.0252,0.0252,0.0252,0.0252,0,0.0221,0.0242,0.0273,0.0329,0.0376,0.043,0.0488,0.0521,0.0575,0.0595,0.0615,0.0576,0.0545,0.0478,0.0413,0.0349,0.0303,0.0279,0.028,0.0263,0.0259,0.0248,0.0248,0.0249,0.0249,0.025,0.025,0,0.0227,0.0249,0.0292,0.0342,0.0401,0.046,0.0491,0.0541,0.0582,0.0626,0.0631,0.0595,0.0584,0.0485,0.0425,0.0359,0.0335,0.0299,0.0298,0.03,0.0308,0.0309,0.031,0,0,0,0,0,0.023,0.0255,0.0302,0.0362,0.0421,0.0458,0.0528,0.0558,0.0606,0.062,0.0629,0.0598,0.0513,0.0481,0.0411,0.0402,0.0319,0.0315,0.0275,0.0235,0.0238,0.0236,0,0,0,0,0,0,0.0232,0.0272,0.0298,0.037,0.0412,0.0482,0.0529,0.0563,0.0574,0.0605,0.0565,0.0557,0.0478,0.0549,0.0401,0.0384,0.0343,0.0283,0.0281,0.0234,0.0236,0.0239,0.0237,0,0,0,0,0]}]]